TimeEDT,TemperatureF,Dew PointF,Humidity,Sea Level PressureIn,VisibilityMPH,Wind Direction,Wind SpeedMPH,Gust SpeedMPH,PrecipitationIn,Events,Conditions,WindDirDegrees,DateUTC
12:53 AM,46.9,43.0,86,29.99,10.0,SSW,4.6,-,N/A,,Clear,200,2012-10-10 04:53:00
1:53 AM,45.0,42.1,90,29.99,10.0,South,3.5,-,N/A,,Clear,190,2012-10-10 05:53:00
2:53 AM,46.0,42.1,86,29.99,10.0,SSW,5.8,-,N/A,,Clear,200,2012-10-10 06:53:00
3:53 AM,48.0,45.0,89,29.99,10.0,SSW,6.9,-,N/A,,Mostly Cloudy,210,2012-10-10 07:53:00
4:53 AM,48.9,44.1,83,29.98,10.0,North,-9999.0,-,N/A,,Overcast,0,2012-10-10 08:53:00
5:53 AM,48.9,44.1,83,29.98,10.0,SSW,8.1,-,N/A,,Mostly Cloudy,210,2012-10-10 09:53:00
6:53 AM,48.0,44.1,86,29.99,10.0,SW,9.2,-,N/A,,Partly Cloudy,220,2012-10-10 10:53:00
7:53 AM,48.9,44.1,83,30.02,10.0,WSW,8.1,-,N/A,,Mostly Cloudy,240,2012-10-10 11:53:00
8:53 AM,50.0,45.0,83,30.05,10.0,West,8.1,-,N/A,,Overcast,260,2012-10-10 12:53:00
9:53 AM,52.0,46.0,80,30.07,10.0,West,5.8,-,N/A,,Overcast,260,2012-10-10 13:53:00
10:16 AM,51.8,46.4,82,30.08,10.0,West,5.8,-,N/A,,Overcast,260,2012-10-10 14:16:00
10:53 AM,52.0,45.0,77,30.10,10.0,Variable,6.9,-,N/A,,Overcast,0,2012-10-10 14:53:00
11:10 AM,53.6,46.4,77,30.10,10.0,Variable,6.9,-,N/A,,Mostly Cloudy,0,2012-10-10 15:10:00
11:53 AM,55.0,39.9,57,30.11,10.0,WNW,11.5,17.3,N/A,,Partly Cloudy,300,2012-10-10 15:53:00
12:53 PM,55.0,37.9,53,30.12,10.0,NW,10.4,24.2,N/A,,Partly Cloudy,310,2012-10-10 16:53:00
1:53 PM,57.0,35.1,44,30.12,10.0,WNW,16.1,21.9,N/A,,Clear,300,2012-10-10 17:53:00
2:53 PM,57.9,36.0,44,30.12,10.0,WNW,8.1,18.4,N/A,,Clear,300,2012-10-10 18:53:00
3:53 PM,57.9,35.1,42,30.13,10.0,West,12.7,18.4,N/A,,Partly Cloudy,270,2012-10-10 19:53:00
4:53 PM,57.9,32.0,37,30.13,10.0,West,11.5,20.7,N/A,,Clear,280,2012-10-10 20:53:00
5:53 PM,55.9,30.9,39,30.15,10.0,NW,11.5,-,N/A,,Clear,310,2012-10-10 21:53:00
6:53 PM,53.1,32.0,45,30.17,10.0,WNW,5.8,-,N/A,,Clear,300,2012-10-10 22:53:00
7:53 PM,50.0,32.0,50,30.19,10.0,WNW,4.6,-,N/A,,Clear,300,2012-10-10 23:53:00
8:53 PM,46.9,30.9,54,30.22,10.0,WNW,3.5,-,N/A,,Clear,300,2012-10-11 00:53:00
9:53 PM,45.0,32.0,60,30.25,10.0,Calm,Calm,-,N/A,,Clear,0,2012-10-11 01:53:00
10:53 PM,42.1,33.1,70,30.25,10.0,Calm,Calm,-,N/A,,Clear,0,2012-10-11 02:53:00
11:53 PM,37.0,32.0,82,30.26,10.0,Calm,Calm,-,N/A,,Clear,0,2012-10-11 03:53:00